Time,TemperatureF,DewpointF,PressureIn,WindDirection,WindDirectionDegrees,WindSpeedMPH,WindSpeedGustMPH,Humidity,HourlyPrecipIn,Conditions,Clouds,dailyrainin,SoftwareType,DateUTC
2013-10-15 00:01:00,74.1,63.3,29.86,ENE,68,0.0,0.0,69,0.00,,---,0.00,VWS V13.01,2013-10-15 04:01:00,
2013-10-15 00:06:00,74.1,63.7,29.86,ENE,68,0.0,0.0,70,0.00,,---,0.00,VWS V13.01,2013-10-15 04:06:00,
2013-10-15 00:11:00,73.9,63.5,29.86,ENE,68,0.0,0.0,70,0.00,,---,0.00,VWS V13.01,2013-10-15 04:11:00,
2013-10-15 00:16:00,73.8,63.4,29.86,ENE,68,0.0,0.0,70,0.00,,---,0.00,VWS V13.01,2013-10-15 04:16:00,
2013-10-15 00:21:00,73.8,63.4,29.86,ENE,68,0.0,0.0,70,0.00,,---,0.00,VWS V13.01,2013-10-15 04:21:00,
2013-10-15 00:26:00,73.8,63.4,29.86,ENE,68,0.0,0.0,70,0.00,,---,0.00,VWS V13.01,2013-10-15 04:26:00,
2013-10-15 00:31:00,73.6,63.2,29.85,ENE,68,0.0,0.0,70,0.00,,---,0.00,VWS V13.01,2013-10-15 04:31:00,
2013-10-15 00:36:00,73.6,63.2,29.85,ENE,68,0.0,0.0,70,0.00,,---,0.00,VWS V13.01,2013-10-15 04:36:00,
2013-10-15 00:41:00,73.4,63.8,29.85,ENE,68,0.0,0.0,72,0.00,,---,0.00,VWS V13.01,2013-10-15 04:41:00,
2013-10-15 00:46:00,73.4,63.8,29.85,ENE,68,0.0,0.0,72,0.00,,---,0.00,VWS V13.01,2013-10-15 04:46:00,
2013-10-15 00:51:00,73.6,64.0,29.85,ENE,68,0.0,0.0,72,0.00,,---,0.00,VWS V13.01,2013-10-15 04:51:00,
2013-10-15 00:56:00,73.6,64.0,29.85,ENE,68,0.0,0.0,72,0.00,,---,0.00,VWS V13.01,2013-10-15 04:56:00,
2013-10-15 01:01:00,73.6,64.0,29.85,ENE,68,0.0,0.0,72,0.00,,---,0.00,VWS V13.01,2013-10-15 05:01:00,
2013-10-15 01:06:00,73.6,64.0,29.85,ENE,68,0.0,0.0,72,0.00,,---,0.00,VWS V13.01,2013-10-15 05:06:00,
2013-10-15 01:11:00,73.6,64.4,29.85,ENE,68,0.0,0.0,73,0.00,,---,0.00,VWS V13.01,2013-10-15 05:11:00,
2013-10-15 01:16:00,73.6,64.4,29.85,ENE,68,0.0,0.0,73,0.00,,---,0.00,VWS V13.01,2013-10-15 05:16:00,
2013-10-15 01:21:00,73.6,64.4,29.85,ENE,68,0.0,0.0,73,0.00,,---,0.00,VWS V13.01,2013-10-15 05:21:00,
2013-10-15 01:26:00,73.6,64.4,29.85,ENE,68,0.0,0.0,73,0.00,,---,0.00,VWS V13.01,2013-10-15 05:26:00,
2013-10-15 01:31:00,73.6,64.8,29.85,ENE,68,0.0,0.0,74,0.00,,---,0.00,VWS V13.01,2013-10-15 05:31:00,
2013-10-15 01:36:00,73.6,64.8,29.85,ENE,68,0.0,0.0,74,0.00,,---,0.00,VWS V13.01,2013-10-15 05:36:00,
2013-10-15 01:41:00,73.6,64.8,29.85,ENE,68,0.0,0.0,74,0.00,,---,0.00,VWS V13.01,2013-10-15 05:41:00,
2013-10-15 01:46:00,73.6,64.8,29.85,ENE,68,0.0,0.0,74,0.00,,---,0.00,VWS V13.01,2013-10-15 05:46:00,
2013-10-15 01:51:00,73.6,64.8,29.85,ENE,68,0.0,0.0,74,0.00,,---,0.00,VWS V13.01,2013-10-15 05:51:00,
2013-10-15 01:56:00,73.6,65.2,29.85,ENE,68,0.0,0.0,75,0.00,,---,0.00,VWS V13.01,2013-10-15 05:56:00,
2013-10-15 02:01:00,73.6,65.2,29.85,ENE,68,0.0,0.0,75,0.00,,---,0.00,VWS V13.01,2013-10-15 06:01:00,
2013-10-15 02:06:00,73.6,65.2,29.84,ENE,68,0.0,0.0,75,0.00,,---,0.00,VWS V13.01,2013-10-15 06:06:00,
2013-10-15 02:11:00,73.6,65.6,29.84,ENE,68,0.0,0.0,76,0.00,,---,0.00,VWS V13.01,2013-10-15 06:11:00,
2013-10-15 02:16:00,73.6,65.6,29.84,ENE,68,0.0,0.0,76,0.00,,---,0.00,VWS V13.01,2013-10-15 06:16:00,
2013-10-15 02:21:00,73.4,65.4,29.84,ENE,68,0.0,0.0,76,0.00,,---,0.00,VWS V13.01,2013-10-15 06:21:00,
2013-10-15 02:26:00,73.4,65.4,29.83,ENE,68,0.0,0.0,76,0.00,,---,0.00,VWS V13.01,2013-10-15 06:26:00,
2013-10-15 02:31:00,73.4,65.4,29.83,ENE,68,0.0,0.0,76,0.00,,---,0.00,VWS V13.01,2013-10-15 06:31:00,
2013-10-15 02:36:00,73.2,65.2,29.83,ENE,68,0.0,0.0,76,0.00,,---,0.00,VWS V13.01,2013-10-15 06:36:00,
2013-10-15 02:41:00,73.2,65.2,29.83,ENE,68,0.0,0.0,76,0.00,,---,0.00,VWS V13.01,2013-10-15 06:41:00,
2013-10-15 02:46:00,73.2,65.2,29.83,ENE,68,0.0,0.0,76,0.00,,---,0.00,VWS V13.01,2013-10-15 06:46:00,
2013-10-15 02:51:00,73.0,65.0,29.82,ENE,68,0.0,0.0,76,0.00,,---,0.00,VWS V13.01,2013-10-15 06:51:00,
2013-10-15 02:56:00,73.0,65.4,29.82,ENE,68,0.0,0.0,77,0.00,,---,0.00,VWS V13.01,2013-10-15 06:56:00,
2013-10-15 03:01:00,73.0,65.4,29.82,ENE,68,0.0,0.0,77,0.00,,---,0.00,VWS V13.01,2013-10-15 07:01:00,
2013-10-15 03:06:00,72.9,65.2,29.82,ENE,68,0.0,0.0,77,0.00,,---,0.00,VWS V13.01,2013-10-15 07:06:00,
2013-10-15 03:11:00,72.9,65.2,29.82,ENE,68,0.0,0.0,77,0.00,,---,0.00,VWS V13.01,2013-10-15 07:11:00,
2013-10-15 03:16:00,72.9,65.6,29.82,ENE,68,0.0,0.0,78,0.00,,---,0.00,VWS V13.01,2013-10-15 07:16:00,
2013-10-15 03:21:00,72.7,65.4,29.82,ENE,68,0.0,0.0,78,0.00,,---,0.00,VWS V13.01,2013-10-15 07:21:00,
2013-10-15 03:26:00,72.5,65.3,29.82,ENE,68,0.0,0.0,78,0.00,,---,0.00,VWS V13.01,2013-10-15 07:26:00,
2013-10-15 03:31:00,72.7,65.4,29.82,ENE,68,0.0,0.0,78,0.00,,---,0.00,VWS V13.01,2013-10-15 07:31:00,
2013-10-15 03:36:00,72.5,65.3,29.82,ENE,68,0.0,0.0,78,0.00,,---,0.00,VWS V13.01,2013-10-15 07:36:00,
2013-10-15 03:41:00,72.5,65.3,29.81,ENE,68,0.0,0.0,78,0.00,,---,0.00,VWS V13.01,2013-10-15 07:41:00,
2013-10-15 03:46:00,72.5,65.3,29.82,ENE,68,0.0,0.0,78,0.00,,---,0.00,VWS V13.01,2013-10-15 07:46:00,
2013-10-15 03:51:00,72.5,65.3,29.81,ENE,68,0.0,0.0,78,0.00,,---,0.00,VWS V13.01,2013-10-15 07:51:00,
2013-10-15 03:56:00,72.5,65.3,29.82,ENE,68,0.0,0.0,78,0.00,,---,0.00,VWS V13.01,2013-10-15 07:56:00,
2013-10-15 04:01:00,72.3,65.1,29.81,ENE,68,0.0,0.0,78,0.00,,---,0.00,VWS V13.01,2013-10-15 08:01:00,
2013-10-15 04:06:00,72.3,65.1,29.81,ENE,68,0.0,0.0,78,0.00,,---,0.00,VWS V13.01,2013-10-15 08:06:00,
2013-10-15 04:11:00,72.3,65.1,29.81,ENE,68,0.0,0.0,78,0.00,,---,0.00,VWS V13.01,2013-10-15 08:11:00,
2013-10-15 04:16:00,72.3,65.1,29.81,ENE,68,0.0,0.0,78,0.00,,---,0.00,VWS V13.01,2013-10-15 08:16:00,
2013-10-15 04:21:00,72.3,65.1,29.81,ENE,68,0.0,0.0,78,0.00,,---,0.00,VWS V13.01,2013-10-15 08:21:00,
2013-10-15 04:26:00,72.3,65.1,29.81,ENE,68,0.0,0.0,78,0.00,,---,0.00,VWS V13.01,2013-10-15 08:26:00,
2013-10-15 04:31:00,72.3,65.1,29.81,ENE,68,0.0,0.0,78,0.00,,---,0.00,VWS V13.01,2013-10-15 08:31:00,
2013-10-15 04:36:00,72.1,66.0,29.81,ENE,68,0.0,0.0,81,0.00,,---,0.00,VWS V13.01,2013-10-15 08:36:00,
2013-10-15 04:41:00,72.0,65.8,29.81,ENE,68,0.0,0.0,81,0.00,,---,0.00,VWS V13.01,2013-10-15 08:41:00,
2013-10-15 04:46:00,72.0,65.8,29.81,ENE,68,0.0,0.0,81,0.00,,---,0.00,VWS V13.01,2013-10-15 08:46:00,
2013-10-15 04:50:00,72.0,65.8,29.81,ENE,68,0.0,0.0,81,0.00,,---,0.00,VWS V13.01,2013-10-15 08:50:00,
2013-10-15 04:55:00,72.0,65.8,29.81,ENE,68,0.0,0.0,81,0.00,,---,0.00,VWS V13.01,2013-10-15 08:55:00,
2013-10-15 05:00:00,72.0,65.8,29.81,ENE,68,0.0,0.0,81,0.00,,---,0.00,VWS V13.01,2013-10-15 09:00:00,
2013-10-15 05:05:00,72.0,65.8,29.81,ENE,68,0.0,0.0,81,0.00,,---,0.00,VWS V13.01,2013-10-15 09:05:00,
2013-10-15 05:10:00,71.8,65.6,29.81,ENE,68,0.0,0.0,81,0.00,,---,0.00,VWS V13.01,2013-10-15 09:10:00,
2013-10-15 05:15:00,72.0,66.2,29.81,ENE,68,0.0,0.0,82,0.00,,---,0.00,VWS V13.01,2013-10-15 09:15:00,
2013-10-15 05:20:00,71.8,66.0,29.81,ENE,68,0.0,0.0,82,0.00,,---,0.00,VWS V13.01,2013-10-15 09:20:00,
2013-10-15 05:25:00,72.0,66.2,29.81,ENE,68,0.0,0.0,82,0.00,,---,0.00,VWS V13.01,2013-10-15 09:25:00,
2013-10-15 05:30:00,71.8,66.0,29.81,ENE,68,0.0,0.0,82,0.00,,---,0.00,VWS V13.01,2013-10-15 09:30:00,
2013-10-15 05:35:00,72.0,66.2,29.81,ENE,68,0.0,0.0,82,0.00,,---,0.00,VWS V13.01,2013-10-15 09:35:00,
2013-10-15 05:40:00,71.8,66.0,29.81,ENE,68,0.0,0.0,82,0.00,,---,0.00,VWS V13.01,2013-10-15 09:40:00,
2013-10-15 05:45:00,71.8,66.3,29.81,ENE,68,0.0,0.0,83,0.00,,---,0.00,VWS V13.01,2013-10-15 09:45:00,
2013-10-15 05:50:00,71.8,66.3,29.81,ENE,68,0.0,0.0,83,0.00,,---,0.00,VWS V13.01,2013-10-15 09:50:00,
2013-10-15 05:55:00,71.8,66.3,29.81,ENE,68,0.0,0.0,83,0.00,,---,0.00,VWS V13.01,2013-10-15 09:55:00,
2013-10-15 06:00:00,71.8,66.3,29.81,ENE,68,0.0,0.0,83,0.00,,---,0.00,VWS V13.01,2013-10-15 10:00:00,
2013-10-15 06:05:00,71.8,66.3,29.81,ENE,68,0.0,0.0,83,0.00,,---,0.00,VWS V13.01,2013-10-15 10:05:00,
2013-10-15 06:10:00,71.8,66.7,29.81,ENE,68,0.0,0.0,84,0.00,,---,0.00,VWS V13.01,2013-10-15 10:10:00,
2013-10-15 06:15:00,71.8,66.7,29.82,ENE,68,0.0,0.0,84,0.00,,---,0.00,VWS V13.01,2013-10-15 10:15:00,
2013-10-15 06:20:00,71.8,66.7,29.82,ENE,68,0.0,0.0,84,0.00,,---,0.00,VWS V13.01,2013-10-15 10:20:00,
2013-10-15 06:25:00,71.6,66.5,29.82,ENE,68,0.0,0.0,84,0.00,,---,0.00,VWS V13.01,2013-10-15 10:25:00,
2013-10-15 06:30:00,71.6,66.5,29.82,ENE,68,0.0,0.0,84,0.00,,---,0.00,VWS V13.01,2013-10-15 10:30:00,
2013-10-15 06:35:00,71.6,66.5,29.82,ENE,68,0.0,0.0,84,0.00,,---,0.00,VWS V13.01,2013-10-15 10:35:00,
2013-10-15 06:40:00,71.6,66.5,29.83,ENE,68,0.0,0.0,84,0.00,,---,0.00,VWS V13.01,2013-10-15 10:40:00,
2013-10-15 06:45:00,71.6,66.5,29.83,ENE,68,0.0,0.0,84,0.00,,---,0.00,VWS V13.01,2013-10-15 10:45:00,
2013-10-15 06:50:00,71.4,66.3,29.83,ENE,68,0.0,0.0,84,0.00,,---,0.00,VWS V13.01,2013-10-15 10:50:00,
2013-10-15 06:55:00,71.4,66.3,29.83,ENE,68,0.0,0.0,84,0.00,,---,0.00,VWS V13.01,2013-10-15 10:55:00,
2013-10-15 07:00:00,71.6,66.5,29.83,ENE,68,0.0,0.0,84,0.00,,---,0.00,VWS V13.01,2013-10-15 11:00:00,
2013-10-15 07:05:00,71.6,66.5,29.83,ENE,68,0.0,0.0,84,0.00,,---,0.00,VWS V13.01,2013-10-15 11:05:00,
2013-10-15 07:10:00,71.6,66.5,29.83,ENE,68,0.0,0.0,84,0.00,,---,0.00,VWS V13.01,2013-10-15 11:10:00,
2013-10-15 07:15:00,71.4,66.3,29.83,ENE,68,0.0,0.0,84,0.00,,---,0.00,VWS V13.01,2013-10-15 11:15:00,
2013-10-15 07:20:00,71.4,66.3,29.83,ENE,68,0.0,0.0,84,0.00,,---,0.00,VWS V13.01,2013-10-15 11:20:00,
2013-10-15 07:25:00,71.4,67.0,29.83,NE,45,0.0,0.0,86,0.00,,---,0.00,VWS V13.01,2013-10-15 11:25:00,
2013-10-15 07:30:00,71.4,67.0,29.83,NE,45,0.0,0.0,86,0.00,,---,0.00,VWS V13.01,2013-10-15 11:30:00,
2013-10-15 07:35:00,71.6,67.2,29.84,NE,45,0.0,0.0,86,0.00,,---,0.00,VWS V13.01,2013-10-15 11:35:00,
2013-10-15 07:40:00,71.6,67.2,29.84,NE,45,0.0,0.0,86,0.00,,---,0.00,VWS V13.01,2013-10-15 11:40:00,
2013-10-15 07:45:00,71.8,67.4,29.84,ENE,68,0.0,0.0,86,0.00,,---,0.00,VWS V13.01,2013-10-15 11:45:00,
2013-10-15 07:50:00,71.8,67.4,29.84,ENE,68,0.0,0.0,86,0.00,,---,0.00,VWS V13.01,2013-10-15 11:50:00,
2013-10-15 07:55:00,72.0,67.6,29.84,ENE,68,0.0,0.0,86,0.00,,---,0.00,VWS V13.01,2013-10-15 11:55:00,
2013-10-15 08:00:00,72.1,68.1,29.85,ESE,112,0.0,0.0,87,0.00,,---,0.00,VWS V13.01,2013-10-15 12:00:00,
2013-10-15 08:05:00,72.3,68.2,29.85,SE,135,0.0,0.0,87,0.00,,---,0.00,VWS V13.01,2013-10-15 12:05:00,
2013-10-15 08:10:00,72.5,68.4,29.85,SE,135,0.0,0.0,87,0.00,,---,0.00,VWS V13.01,2013-10-15 12:10:00,
2013-10-15 08:15:00,72.7,68.6,29.85,SE,135,0.0,0.0,87,0.00,,---,0.00,VWS V13.01,2013-10-15 12:15:00,
2013-10-15 08:20:00,73.2,69.1,29.85,SSW,202,0.0,0.0,87,0.00,,---,0.00,VWS V13.01,2013-10-15 12:20:00,
2013-10-15 08:25:00,73.8,69.3,29.86,SSW,202,0.0,0.0,86,0.00,,---,0.00,VWS V13.01,2013-10-15 12:25:00,
2013-10-15 08:30:00,74.1,69.7,29.86,NE,45,0.0,0.0,86,0.00,,---,0.00,VWS V13.01,2013-10-15 12:30:00,
2013-10-15 08:35:00,74.3,69.8,29.86,NE,45,0.0,0.0,86,0.00,,---,0.00,VWS V13.01,2013-10-15 12:35:00,
2013-10-15 08:40:00,74.8,70.4,29.86,ENE,68,0.0,0.0,86,0.00,,---,0.00,VWS V13.01,2013-10-15 12:40:00,
2013-10-15 08:45:00,75.0,70.6,29.86,ENE,68,0.0,0.0,86,0.00,,---,0.00,VWS V13.01,2013-10-15 12:45:00,
2013-10-15 08:50:00,75.4,70.9,29.86,ENE,68,0.0,0.0,86,0.00,,---,0.00,VWS V13.01,2013-10-15 12:50:00,
2013-10-15 08:55:00,75.6,71.1,29.86,ENE,68,0.0,0.0,86,0.00,,---,0.00,VWS V13.01,2013-10-15 12:55:00,
2013-10-15 09:00:00,75.9,70.4,29.86,ENE,68,0.0,0.0,83,0.00,,---,0.00,VWS V13.01,2013-10-15 13:00:00,
2013-10-15 09:05:00,76.1,70.6,29.86,ENE,68,0.0,0.0,83,0.00,,---,0.00,VWS V13.01,2013-10-15 13:05:00,
2013-10-15 09:10:00,76.8,70.2,29.86,ENE,68,0.0,0.0,80,0.00,,---,0.00,VWS V13.01,2013-10-15 13:10:00,
2013-10-15 09:15:00,77.4,70.7,29.86,ENE,68,0.0,0.0,80,0.00,,---,0.00,VWS V13.01,2013-10-15 13:15:00,
2013-10-15 09:20:00,77.5,70.9,29.86,ENE,68,0.0,0.0,80,0.00,,---,0.00,VWS V13.01,2013-10-15 13:20:00,
2013-10-15 09:25:00,78.1,71.4,29.86,ENE,68,0.0,0.0,80,0.00,,---,0.00,VWS V13.01,2013-10-15 13:25:00,
2013-10-15 09:30:00,78.3,69.3,29.86,ENE,68,0.0,1.6,74,0.00,,---,0.00,VWS V13.01,2013-10-15 13:30:00,
2013-10-15 09:35:00,78.8,69.8,29.86,ENE,68,0.0,1.6,74,0.00,,---,0.00,VWS V13.01,2013-10-15 13:35:00,
2013-10-15 09:40:00,79.2,70.2,29.86,ENE,68,0.0,1.6,74,0.00,,---,0.00,VWS V13.01,2013-10-15 13:40:00,
2013-10-15 09:45:00,79.5,70.5,29.86,ENE,68,0.0,1.6,74,0.00,,---,0.00,VWS V13.01,2013-10-15 13:45:00,
2013-10-15 09:50:00,79.9,70.9,29.86,NE,45,0.0,1.6,74,0.00,,---,0.00,VWS V13.01,2013-10-15 13:50:00,
2013-10-15 09:55:00,80.2,71.2,29.86,ENE,68,0.0,1.6,74,0.00,,---,0.00,VWS V13.01,2013-10-15 13:55:00,
2013-10-15 10:00:00,80.8,71.7,29.86,ENE,68,0.0,1.6,74,0.00,,---,0.00,VWS V13.01,2013-10-15 14:00:00,
2013-10-15 10:05:00,81.0,71.9,29.86,ENE,68,0.0,1.3,74,0.00,,---,0.00,VWS V13.01,2013-10-15 14:05:00,
2013-10-15 10:10:00,81.3,68.4,29.86,ENE,68,0.0,1.3,65,0.00,,---,0.00,VWS V13.01,2013-10-15 14:10:00,
2013-10-15 10:15:00,81.9,68.9,29.86,ENE,68,0.0,1.3,65,0.00,,---,0.00,VWS V13.01,2013-10-15 14:15:00,
2013-10-15 10:20:00,82.2,69.3,29.86,ENE,68,0.0,1.3,65,0.00,,---,0.00,VWS V13.01,2013-10-15 14:20:00,
2013-10-15 10:25:00,82.8,69.8,29.86,ENE,68,0.0,1.3,65,0.00,,---,0.00,VWS V13.01,2013-10-15 14:25:00,
2013-10-15 10:30:00,83.3,70.3,29.86,ENE,68,0.0,2.2,65,0.00,,---,0.00,VWS V13.01,2013-10-15 14:30:00,
2013-10-15 10:35:00,83.3,70.3,29.86,ENE,68,0.0,2.9,65,0.00,,---,0.00,VWS V13.01,2013-10-15 14:35:00,
2013-10-15 10:40:00,83.3,70.3,29.86,ENE,68,0.0,2.9,65,0.00,,---,0.00,VWS V13.01,2013-10-15 14:40:00,
2013-10-15 10:45:00,83.5,70.5,29.86,NE,45,0.0,2.9,65,0.00,,---,0.00,VWS V13.01,2013-10-15 14:45:00,
2013-10-15 10:50:00,83.3,70.3,29.86,ENE,68,0.0,2.9,65,0.00,,---,0.00,VWS V13.01,2013-10-15 14:50:00,
2013-10-15 10:55:00,83.8,70.8,29.86,ENE,68,0.0,2.9,65,0.00,,---,0.00,VWS V13.01,2013-10-15 14:55:00,
2013-10-15 11:00:00,84.0,71.0,29.86,ENE,68,0.0,0.0,65,0.00,,---,0.00,VWS V13.01,2013-10-15 15:00:00,
2013-10-15 11:05:00,84.0,71.0,29.86,ENE,68,0.0,0.0,65,0.00,,---,0.00,VWS V13.01,2013-10-15 15:05:00,
2013-10-15 11:10:00,84.2,71.2,29.86,ENE,68,0.0,0.0,65,0.00,,---,0.00,VWS V13.01,2013-10-15 15:10:00,
2013-10-15 11:15:00,84.6,71.5,29.86,ENE,68,1.8,1.8,65,0.00,,---,0.00,VWS V13.01,2013-10-15 15:15:00,
2013-10-15 11:20:00,84.7,66.3,29.86,ENE,68,0.0,2.9,54,0.00,,---,0.00,VWS V13.01,2013-10-15 15:20:00,
2013-10-15 11:25:00,84.4,65.9,29.86,ENE,68,2.0,5.1,54,0.00,,---,0.00,VWS V13.01,2013-10-15 15:25:00,
2013-10-15 11:30:00,83.8,65.4,29.86,ENE,68,0.0,5.1,54,0.00,,---,0.00,VWS V13.01,2013-10-15 15:30:00,
2013-10-15 11:35:00,84.7,66.3,29.86,ENE,68,0.0,5.1,54,0.00,,---,0.00,VWS V13.01,2013-10-15 15:35:00,
2013-10-15 11:40:00,86.2,67.6,29.86,ENE,68,0.0,5.1,54,0.00,,---,0.00,VWS V13.01,2013-10-15 15:40:00,
2013-10-15 11:45:00,86.2,67.6,29.86,ENE,68,0.0,5.1,54,0.00,,---,0.00,VWS V13.01,2013-10-15 15:45:00,
2013-10-15 11:50:00,86.5,67.9,29.86,ENE,68,3.8,5.1,54,0.00,,---,0.00,VWS V13.01,2013-10-15 15:50:00,
2013-10-15 11:55:00,86.9,66.0,29.86,East,90,1.8,5.1,50,0.00,,---,0.00,VWS V13.01,2013-10-15 15:55:00,
2013-10-15 12:00:00,87.3,66.4,29.85,ENE,68,0.0,5.1,50,0.00,,---,0.00,VWS V13.01,2013-10-15 16:00:00,
2013-10-15 12:05:00,87.3,66.4,29.85,East,90,0.0,5.6,50,0.00,,---,0.00,VWS V13.01,2013-10-15 16:05:00,
2013-10-15 12:10:00,87.4,66.5,29.85,ENE,68,1.3,5.6,50,0.00,,---,0.00,VWS V13.01,2013-10-15 16:10:00,
2013-10-15 12:15:00,87.6,66.7,29.85,ENE,68,0.0,6.5,50,0.00,,---,0.00,VWS V13.01,2013-10-15 16:15:00,
2013-10-15 12:20:00,88.0,67.0,29.84,ENE,68,0.0,6.5,50,0.00,,---,0.00,VWS V13.01,2013-10-15 16:20:00,
2013-10-15 12:25:00,88.2,67.2,29.84,ENE,68,0.0,6.5,50,0.00,,---,0.00,VWS V13.01,2013-10-15 16:25:00,
2013-10-15 12:30:00,87.4,62.9,29.84,ENE,68,0.0,6.5,44,0.00,,---,0.00,VWS V13.01,2013-10-15 16:30:00,
2013-10-15 12:35:00,87.4,62.9,29.84,ENE,68,2.5,6.5,44,0.00,,---,0.00,VWS V13.01,2013-10-15 16:35:00,
2013-10-15 12:40:00,87.4,62.9,29.84,ENE,68,0.0,6.5,44,0.00,,---,0.00,VWS V13.01,2013-10-15 16:40:00,
2013-10-15 12:45:00,87.8,63.2,29.83,ENE,68,0.0,6.5,44,0.00,,---,0.00,VWS V13.01,2013-10-15 16:45:00,
2013-10-15 12:50:00,88.5,63.8,29.83,ENE,68,1.8,6.5,44,0.00,,---,0.00,VWS V13.01,2013-10-15 16:50:00,
2013-10-15 12:55:00,88.2,63.5,29.83,ENE,68,0.0,6.5,44,0.00,,---,0.00,VWS V13.01,2013-10-15 16:55:00,
2013-10-15 13:00:00,87.8,63.2,29.83,ENE,68,0.0,6.5,44,0.00,,---,0.00,VWS V13.01,2013-10-15 17:00:00,
2013-10-15 13:05:00,87.8,63.2,29.82,ENE,68,6.7,7.6,44,0.00,,---,0.00,VWS V13.01,2013-10-15 17:05:00,
2013-10-15 13:10:00,87.1,62.5,29.82,ENE,68,0.0,7.6,44,0.00,,---,0.00,VWS V13.01,2013-10-15 17:10:00,
2013-10-15 13:15:00,87.6,62.4,29.82,ENE,68,0.0,7.6,43,0.00,,---,0.00,VWS V13.01,2013-10-15 17:15:00,
2013-10-15 13:20:00,88.0,62.7,29.82,ENE,68,1.1,9.2,43,0.00,,---,0.00,VWS V13.01,2013-10-15 17:20:00,
2013-10-15 13:25:00,87.3,61.4,29.82,ENE,68,0.0,9.2,42,0.00,,---,0.00,VWS V13.01,2013-10-15 17:25:00,
2013-10-15 13:30:00,86.7,61.6,29.82,ENE,68,0.0,9.2,43,0.00,,---,0.00,VWS V13.01,2013-10-15 17:30:00,
2013-10-15 13:35:00,86.5,62.1,29.82,ENE,68,0.0,9.2,44,0.00,,---,0.00,VWS V13.01,2013-10-15 17:35:00,
2013-10-15 13:40:00,86.4,61.9,29.82,ENE,68,0.0,9.2,44,0.00,,---,0.00,VWS V13.01,2013-10-15 17:40:00,
2013-10-15 13:45:00,86.2,61.7,29.82,ENE,68,0.0,9.2,44,0.00,,---,0.00,VWS V13.01,2013-10-15 17:45:00,
2013-10-15 13:50:00,86.2,62.4,29.81,ENE,68,0.0,9.2,45,0.00,,---,0.00,VWS V13.01,2013-10-15 17:50:00,
2013-10-15 13:55:00,86.2,62.4,29.81,ENE,68,0.0,9.2,45,0.00,,---,0.00,VWS V13.01,2013-10-15 17:55:00,
2013-10-15 14:00:00,86.4,62.5,29.80,SSE,158,1.6,1.6,45,0.00,,---,0.00,VWS V13.01,2013-10-15 18:00:00,
2013-10-15 14:05:00,86.9,62.4,29.80,ENE,68,2.2,5.1,44,0.00,,---,0.00,VWS V13.01,2013-10-15 18:05:00,
2013-10-15 14:10:00,87.1,62.5,29.80,East,90,0.0,5.1,44,0.00,,---,0.00,VWS V13.01,2013-10-15 18:10:00,
2013-10-15 14:15:00,87.4,62.2,29.80,ENE,68,3.1,6.7,43,0.00,,---,0.00,VWS V13.01,2013-10-15 18:15:00,
2013-10-15 14:20:00,86.7,60.9,29.80,ENE,68,3.8,6.9,42,0.00,,---,0.00,VWS V13.01,2013-10-15 18:20:00,
2013-10-15 14:25:00,86.2,61.1,29.79,ENE,68,0.0,6.9,43,0.00,,---,0.00,VWS V13.01,2013-10-15 18:25:00,
2013-10-15 14:30:00,86.4,61.2,29.79,ENE,68,0.0,8.3,43,0.00,,---,0.00,VWS V13.01,2013-10-15 18:30:00,
2013-10-15 14:35:00,86.9,61.1,29.79,ENE,68,5.1,8.3,42,0.00,,---,0.00,VWS V13.01,2013-10-15 18:35:00,
2013-10-15 14:40:00,87.6,61.7,29.79,ESE,112,0.0,8.3,42,0.00,,---,0.00,VWS V13.01,2013-10-15 18:40:00,
2013-10-15 14:45:00,88.0,62.0,29.79,ENE,68,1.3,8.7,42,0.00,,---,0.00,VWS V13.01,2013-10-15 18:45:00,
2013-10-15 14:50:00,87.6,61.7,29.78,ENE,68,0.0,8.7,42,0.00,,---,0.00,VWS V13.01,2013-10-15 18:50:00,
2013-10-15 14:55:00,87.6,62.4,29.78,ENE,68,2.9,8.7,43,0.00,,---,0.00,VWS V13.01,2013-10-15 18:55:00,
2013-10-15 15:00:00,87.1,61.2,29.78,ENE,68,2.7,8.7,42,0.00,,---,0.00,VWS V13.01,2013-10-15 19:00:00,
2013-10-15 15:05:00,87.4,62.2,29.78,ENE,68,3.6,5.6,43,0.00,,---,0.00,VWS V13.01,2013-10-15 19:05:00,
2013-10-15 15:10:00,87.3,61.4,29.78,ENE,68,6.5,7.8,42,0.00,,---,0.00,VWS V13.01,2013-10-15 19:10:00,
2013-10-15 15:15:00,87.1,61.9,29.78,ENE,68,5.4,10.5,43,0.00,,---,0.00,VWS V13.01,2013-10-15 19:15:00,
2013-10-15 15:20:00,87.4,62.2,29.78,ENE,68,3.6,10.5,43,0.00,,---,0.00,VWS V13.01,2013-10-15 19:20:00,
2013-10-15 15:25:00,87.4,62.2,29.78,SE,135,0.0,11.0,43,0.00,,---,0.00,VWS V13.01,2013-10-15 19:25:00,
2013-10-15 15:30:00,87.3,61.4,29.78,ENE,68,4.5,11.0,42,0.00,,---,0.00,VWS V13.01,2013-10-15 19:30:00,
2013-10-15 15:35:00,87.6,62.4,29.78,ENE,68,1.6,11.0,43,0.00,,---,0.00,VWS V13.01,2013-10-15 19:35:00,
2013-10-15 15:40:00,87.8,61.9,29.78,ENE,68,1.8,11.0,42,0.00,,---,0.00,VWS V13.01,2013-10-15 19:40:00,
2013-10-15 15:45:00,87.3,61.4,29.78,ENE,68,5.6,11.0,42,0.00,,---,0.00,VWS V13.01,2013-10-15 19:45:00,
2013-10-15 15:50:00,86.7,62.2,29.78,ENE,68,0.0,11.0,44,0.00,,---,0.00,VWS V13.01,2013-10-15 19:50:00,
2013-10-15 15:55:00,86.5,62.7,29.78,ENE,68,0.0,11.0,45,0.00,,---,0.00,VWS V13.01,2013-10-15 19:55:00,
2013-10-15 16:00:00,86.5,63.3,29.78,ENE,68,3.1,11.0,46,0.00,,---,0.00,VWS V13.01,2013-10-15 20:00:00,
2013-10-15 16:05:00,86.7,63.5,29.78,East,90,6.5,9.0,46,0.00,,---,0.00,VWS V13.01,2013-10-15 20:05:00,
2013-10-15 16:10:00,86.9,63.0,29.78,ENE,68,1.6,9.0,45,0.00,,---,0.00,VWS V13.01,2013-10-15 20:10:00,
2013-10-15 16:15:00,87.3,63.3,29.78,SE,135,0.0,9.0,45,0.00,,---,0.00,VWS V13.01,2013-10-15 20:15:00,
2013-10-15 16:20:00,87.3,62.7,29.78,ENE,68,4.9,9.2,44,0.00,,---,0.00,VWS V13.01,2013-10-15 20:20:00,
2013-10-15 16:25:00,87.4,63.5,29.78,ENE,68,3.8,9.2,45,0.00,,---,0.00,VWS V13.01,2013-10-15 20:25:00,
2013-10-15 16:30:00,87.3,62.7,29.78,SSE,158,2.7,9.2,44,0.00,,---,0.00,VWS V13.01,2013-10-15 20:30:00,
2013-10-15 16:35:00,87.4,62.9,29.78,East,90,7.6,9.2,44,0.00,,---,0.00,VWS V13.01,2013-10-15 20:35:00,
2013-10-15 16:40:00,87.3,63.3,29.78,ENE,68,2.5,9.2,45,0.00,,---,0.00,VWS V13.01,2013-10-15 20:40:00,
2013-10-15 16:45:00,87.3,63.3,29.78,ENE,68,4.3,9.2,45,0.00,,---,0.00,VWS V13.01,2013-10-15 20:45:00,
2013-10-15 16:50:00,86.7,62.2,29.78,ESE,112,1.8,10.5,44,0.00,,---,0.00,VWS V13.01,2013-10-15 20:50:00,
2013-10-15 16:55:00,86.2,63.0,29.78,ENE,68,3.4,10.5,46,0.00,,---,0.00,VWS V13.01,2013-10-15 20:55:00,
2013-10-15 17:00:00,85.6,63.1,29.78,ENE,68,2.9,10.5,47,0.00,,---,0.00,VWS V13.01,2013-10-15 21:00:00,
2013-10-15 17:05:00,85.5,63.0,29.78,ENE,68,6.3,6.3,47,0.00,,---,0.00,VWS V13.01,2013-10-15 21:05:00,
2013-10-15 17:10:00,85.5,63.0,29.78,East,90,0.0,8.3,47,0.00,,---,0.00,VWS V13.01,2013-10-15 21:10:00,
2013-10-15 17:15:00,85.3,63.4,29.78,East,90,1.1,8.3,48,0.00,,---,0.00,VWS V13.01,2013-10-15 21:15:00,
2013-10-15 17:20:00,85.1,63.8,29.78,East,90,0.0,8.3,49,0.00,,---,0.00,VWS V13.01,2013-10-15 21:20:00,
2013-10-15 17:25:00,85.3,64.0,29.78,East,90,2.5,8.3,49,0.00,,---,0.00,VWS V13.01,2013-10-15 21:25:00,
2013-10-15 17:30:00,85.1,64.4,29.78,ENE,68,3.6,8.3,50,0.00,,---,0.00,VWS V13.01,2013-10-15 21:30:00,
2013-10-15 17:35:00,85.1,64.4,29.78,SE,135,2.7,8.3,50,0.00,,---,0.00,VWS V13.01,2013-10-15 21:35:00,
2013-10-15 17:40:00,84.9,64.2,29.78,ESE,112,2.9,8.3,50,0.00,,---,0.00,VWS V13.01,2013-10-15 21:40:00,
2013-10-15 17:45:00,84.7,64.1,29.78,ENE,68,5.4,8.3,50,0.00,,---,0.00,VWS V13.01,2013-10-15 21:45:00,
2013-10-15 17:50:00,84.6,63.9,29.78,East,90,2.7,8.3,50,0.00,,---,0.00,VWS V13.01,2013-10-15 21:50:00,
2013-10-15 17:55:00,84.0,63.4,29.79,ENE,68,4.9,8.3,50,0.00,,---,0.00,VWS V13.01,2013-10-15 21:55:00,
2013-10-15 18:00:00,83.7,63.6,29.79,SE,135,0.7,8.3,51,0.00,,---,0.00,VWS V13.01,2013-10-15 22:00:00,
2013-10-15 18:05:00,83.3,63.3,29.79,ENE,68,4.7,6.0,51,0.00,,---,0.00,VWS V13.01,2013-10-15 22:05:00,
2013-10-15 18:10:00,83.3,63.3,29.79,ESE,112,0.0,8.5,51,0.00,,---,0.00,VWS V13.01,2013-10-15 22:10:00,
2013-10-15 18:15:00,83.1,63.1,29.79,ENE,68,2.7,8.5,51,0.00,,---,0.00,VWS V13.01,2013-10-15 22:15:00,
2013-10-15 18:20:00,82.8,62.8,29.79,ENE,68,1.1,8.5,51,0.00,,---,0.00,VWS V13.01,2013-10-15 22:20:00,
2013-10-15 18:25:00,82.8,62.8,29.79,East,90,0.0,8.5,51,0.00,,---,0.00,VWS V13.01,2013-10-15 22:25:00,
2013-10-15 18:30:00,82.6,62.6,29.79,ENE,68,0.0,8.5,51,0.00,,---,0.00,VWS V13.01,2013-10-15 22:30:00,
2013-10-15 18:35:00,82.2,62.3,29.79,ENE,68,3.4,8.5,51,0.00,,---,0.00,VWS V13.01,2013-10-15 22:35:00,
2013-10-15 18:40:00,82.0,62.1,29.79,ESE,112,0.0,8.5,51,0.00,,---,0.00,VWS V13.01,2013-10-15 22:40:00,
2013-10-15 18:45:00,81.9,62.0,29.79,ENE,68,4.3,8.5,51,0.00,,---,0.00,VWS V13.01,2013-10-15 22:45:00,
2013-10-15 18:50:00,81.7,61.8,29.80,ESE,112,3.8,8.5,51,0.00,,---,0.00,VWS V13.01,2013-10-15 22:50:00,
2013-10-15 18:55:00,81.5,61.7,29.79,East,90,2.5,8.5,51,0.00,,---,0.00,VWS V13.01,2013-10-15 22:55:00,
2013-10-15 19:00:00,81.5,61.7,29.80,East,90,1.8,8.5,51,0.00,,---,0.00,VWS V13.01,2013-10-15 23:00:00,
2013-10-15 19:05:00,81.1,62.9,29.80,East,90,0.0,4.7,54,0.00,,---,0.00,VWS V13.01,2013-10-15 23:05:00,
2013-10-15 19:10:00,81.3,63.1,29.80,East,90,1.8,4.7,54,0.00,,---,0.00,VWS V13.01,2013-10-15 23:10:00,
2013-10-15 19:15:00,81.0,62.8,29.80,ESE,112,0.0,4.7,54,0.00,,---,0.00,VWS V13.01,2013-10-15 23:15:00,
2013-10-15 19:20:00,81.0,62.8,29.80,ESE,112,0.0,4.7,54,0.00,,---,0.00,VWS V13.01,2013-10-15 23:20:00,
2013-10-15 19:25:00,80.8,62.6,29.80,East,90,0.0,4.7,54,0.00,,---,0.00,VWS V13.01,2013-10-15 23:25:00,
2013-10-15 19:30:00,80.6,62.4,29.80,ENE,68,0.0,4.7,54,0.00,,---,0.00,VWS V13.01,2013-10-15 23:30:00,
2013-10-15 19:35:00,80.6,63.0,29.80,ENE,68,0.0,4.7,55,0.00,,---,0.00,VWS V13.01,2013-10-15 23:35:00,
2013-10-15 19:40:00,80.4,62.8,29.81,ENE,68,0.0,4.7,55,0.00,,---,0.00,VWS V13.01,2013-10-15 23:40:00,
2013-10-15 19:45:00,80.2,62.6,29.81,ENE,68,0.0,4.7,55,0.00,,---,0.00,VWS V13.01,2013-10-15 23:45:00,
2013-10-15 19:50:00,80.2,62.6,29.81,East,90,0.0,4.7,55,0.00,,---,0.00,VWS V13.01,2013-10-15 23:50:00,
2013-10-15 19:55:00,80.1,62.5,29.81,ENE,68,0.0,4.7,55,0.00,,---,0.00,VWS V13.01,2013-10-15 23:55:00,
2013-10-15 20:00:00,80.1,62.5,29.81,ENE,68,0.0,4.7,55,0.00,,---,0.00,VWS V13.01,2013-10-16 00:00:00,
2013-10-15 20:05:00,79.9,62.3,29.81,ENE,68,0.0,0.0,55,0.00,,---,0.00,VWS V13.01,2013-10-16 00:05:00,
2013-10-15 20:10:00,80.1,63.0,29.81,ENE,68,0.0,0.0,56,0.00,,---,0.00,VWS V13.01,2013-10-16 00:10:00,
2013-10-15 20:15:00,79.9,62.8,29.81,ENE,68,0.0,0.0,56,0.00,,---,0.00,VWS V13.01,2013-10-16 00:15:00,
2013-10-15 20:20:00,79.9,62.8,29.81,ENE,68,0.0,0.0,56,0.00,,---,0.00,VWS V13.01,2013-10-16 00:20:00,
2013-10-15 20:25:00,79.5,63.0,29.82,ENE,68,0.0,0.0,57,0.00,,---,0.00,VWS V13.01,2013-10-16 00:25:00,
2013-10-15 20:30:00,79.7,63.1,29.82,ENE,68,0.0,0.0,57,0.00,,---,0.00,VWS V13.01,2013-10-16 00:30:00,
2013-10-15 20:34:00,79.5,63.0,29.82,ENE,68,0.0,0.0,57,0.00,,---,0.00,VWS V13.01,2013-10-16 00:34:00,
2013-10-15 20:40:00,79.2,62.6,29.82,ENE,68,0.0,0.0,57,0.00,,---,0.00,VWS V13.01,2013-10-16 00:40:00,
2013-10-15 20:44:00,79.0,62.5,29.82,ENE,68,0.0,0.0,57,0.00,,---,0.00,VWS V13.01,2013-10-16 00:44:00,
2013-10-15 20:49:00,79.0,62.5,29.82,ENE,68,0.0,0.0,57,0.00,,---,0.00,VWS V13.01,2013-10-16 00:49:00,
2013-10-15 20:54:00,78.8,62.3,29.83,ENE,68,0.0,0.0,57,0.00,,---,0.00,VWS V13.01,2013-10-16 00:54:00,
2013-10-15 20:59:00,78.8,62.3,29.83,ENE,68,0.0,0.0,57,0.00,,---,0.00,VWS V13.01,2013-10-16 00:59:00,
2013-10-15 21:04:00,78.6,63.6,29.83,ENE,68,0.0,0.0,60,0.00,,---,0.00,VWS V13.01,2013-10-16 01:04:00,
2013-10-15 21:09:00,78.4,63.4,29.83,ENE,68,0.0,0.0,60,0.00,,---,0.00,VWS V13.01,2013-10-16 01:09:00,
2013-10-15 21:14:00,78.3,63.2,29.83,ENE,68,0.0,0.0,60,0.00,,---,0.00,VWS V13.01,2013-10-16 01:14:00,
2013-10-15 21:19:00,78.3,63.2,29.84,ENE,68,0.0,0.0,60,0.00,,---,0.00,VWS V13.01,2013-10-16 01:19:00,
2013-10-15 21:24:00,78.3,63.2,29.84,ENE,68,0.0,0.0,60,0.00,,---,0.00,VWS V13.01,2013-10-16 01:24:00,
2013-10-15 21:29:00,77.9,62.9,29.84,ENE,68,0.0,0.0,60,0.00,,---,0.00,VWS V13.01,2013-10-16 01:29:00,
2013-10-15 21:34:00,77.9,62.9,29.84,ENE,68,0.0,0.0,60,0.00,,---,0.00,VWS V13.01,2013-10-16 01:34:00,
2013-10-15 21:39:00,77.7,62.7,29.84,ENE,68,0.0,0.0,60,0.00,,---,0.00,VWS V13.01,2013-10-16 01:39:00,
2013-10-15 21:44:00,77.5,62.6,29.85,ENE,68,0.0,0.0,60,0.00,,---,0.00,VWS V13.01,2013-10-16 01:44:00,
2013-10-15 21:49:00,77.4,62.4,29.84,ENE,68,0.0,0.0,60,0.00,,---,0.00,VWS V13.01,2013-10-16 01:49:00,
2013-10-15 21:54:00,77.2,62.2,29.85,ENE,68,0.0,0.0,60,0.00,,---,0.00,VWS V13.01,2013-10-16 01:54:00,
2013-10-15 21:59:00,77.2,63.6,29.85,ENE,68,0.0,0.0,63,0.00,,---,0.00,VWS V13.01,2013-10-16 01:59:00,
2013-10-15 22:04:00,77.0,63.5,29.85,ENE,68,0.0,0.0,63,0.00,,---,0.00,VWS V13.01,2013-10-16 02:04:00,
2013-10-15 22:09:00,76.8,63.3,29.85,ENE,68,0.0,0.0,63,0.00,,---,0.00,VWS V13.01,2013-10-16 02:09:00,
2013-10-15 22:14:00,76.6,63.1,29.85,ENE,68,0.0,0.0,63,0.00,,---,0.00,VWS V13.01,2013-10-16 02:14:00,
2013-10-15 22:19:00,76.6,63.6,29.85,ENE,68,0.0,0.0,64,0.00,,---,0.00,VWS V13.01,2013-10-16 02:19:00,
2013-10-15 22:24:00,76.5,63.4,29.85,ENE,68,0.0,0.0,64,0.00,,---,0.00,VWS V13.01,2013-10-16 02:24:00,
2013-10-15 22:29:00,76.5,63.4,29.85,ENE,68,0.0,0.0,64,0.00,,---,0.00,VWS V13.01,2013-10-16 02:29:00,
2013-10-15 22:34:00,76.3,63.2,29.85,ENE,68,0.0,0.0,64,0.00,,---,0.00,VWS V13.01,2013-10-16 02:34:00,
2013-10-15 22:39:00,76.1,63.0,29.85,ENE,68,0.0,0.0,64,0.00,,---,0.00,VWS V13.01,2013-10-16 02:39:00,
2013-10-15 22:44:00,76.1,63.9,29.85,ENE,68,0.0,0.0,66,0.00,,---,0.00,VWS V13.01,2013-10-16 02:44:00,
2013-10-15 22:49:00,75.9,63.8,29.85,ENE,68,0.0,0.0,66,0.00,,---,0.00,VWS V13.01,2013-10-16 02:49:00,
2013-10-15 22:54:00,75.6,63.4,29.85,ENE,68,0.0,0.0,66,0.00,,---,0.00,VWS V13.01,2013-10-16 02:54:00,
2013-10-15 22:59:00,75.6,63.8,29.85,ENE,68,0.0,0.0,67,0.00,,---,0.00,VWS V13.01,2013-10-16 02:59:00,
2013-10-15 23:04:00,75.6,63.8,29.85,ENE,68,0.0,0.0,67,0.00,,---,0.00,VWS V13.01,2013-10-16 03:04:00,
2013-10-15 23:09:00,75.4,63.7,29.85,ENE,68,0.0,0.0,67,0.00,,---,0.00,VWS V13.01,2013-10-16 03:09:00,
2013-10-15 23:14:00,75.4,63.7,29.85,ENE,68,0.0,0.0,67,0.00,,---,0.00,VWS V13.01,2013-10-16 03:14:00,
2013-10-15 23:19:00,75.2,63.5,29.85,ENE,68,0.0,0.0,67,0.00,,---,0.00,VWS V13.01,2013-10-16 03:19:00,
2013-10-15 23:24:00,75.0,63.3,29.85,ENE,68,0.0,0.0,67,0.00,,---,0.00,VWS V13.01,2013-10-16 03:24:00,
2013-10-15 23:29:00,75.0,63.3,29.85,ENE,68,0.0,0.0,67,0.00,,---,0.00,VWS V13.01,2013-10-16 03:29:00,
2013-10-15 23:34:00,74.8,63.2,29.85,ENE,68,0.0,0.0,67,0.00,,---,0.00,VWS V13.01,2013-10-16 03:34:00,
2013-10-15 23:39:00,74.8,63.2,29.85,ENE,68,0.0,0.0,67,0.00,,---,0.00,VWS V13.01,2013-10-16 03:39:00,
2013-10-15 23:44:00,74.7,63.0,29.84,ENE,68,0.0,0.0,67,0.00,,---,0.00,VWS V13.01,2013-10-16 03:44:00,
2013-10-15 23:49:00,74.7,63.0,29.84,ENE,68,0.0,0.0,67,0.00,,---,0.00,VWS V13.01,2013-10-16 03:49:00,
2013-10-15 23:54:00,74.7,63.0,29.84,ENE,68,0.0,0.0,67,0.00,,---,0.00,VWS V13.01,2013-10-16 03:54:00,
2013-10-15 23:59:00,74.7,63.0,29.84,ENE,68,0.0,0.0,67,0.00,,---,0.00,VWS V13.01,2013-10-16 03:59:00,